User: anonymous   Login
Location: Unspecified
(0.0000°N, 0.0000°E)
Time: 08:01:55
(UTC+00:00)
Language:

OBJECT X - Orbit

View from above orbital plane
View from above orbital plane
View from above satellite
View from above satellite

Ground track
Ground track

The orbit data is extracted from the following two-line orbital elements,

1 43897U 18111X   20223.88094208 +.00000424 +00000-0 +20100-4 0  9998
2 43897 097.2586 121.6091 0021550 321.2499 038.7193 15.24303972090289
Epoch (UTC): 10 August 2020 21:08:33
Eccentricity: 0.0021550
inclination: 97.2586°
perigee height: 478 km
apogee height: 507 km
right ascension of ascending node: 121.6091°
argument of perigee: 321.2499°
revolutions per day: 15.24303972
mean anomaly at epoch: 38.7193°
orbit number at epoch: 9028

The dashed part of the orbit path shows where the satellite is in the earth's shadow,  

DLR